カタログに戻る

COSMOS 2604

運用中軍事PO
NORAD 67678·PAYLOAD·🇷🇺 Russia

打ち上げ Feb 5, 2026 から Plesetsk Cosmodrome

Loading…

次のパス (今後24時間)

TLE

最新Source: Space-Track

元期: Sep 14, 2026, 01:55 UTC

1 67678U 26023E   26257.08021188  .00009420  00000-0  35633-3 0  9995
2 67678  96.6108 308.3935 0018050 167.5201 192.6491 15.26974160 33563

AllMySatでCOSMOS 2604をリアルタイム追跡

Download on the App Store